EW4443 Weather Reports


Display with metric or nautical units.
time (UTC)temp
F
wind
direction
speed
MPH
gust
MPH
rain 1hr
in
rain 24hr
in
rain mn
in
humidity
%
barometer
mb
20181016084949 62 180 2.0 12.0 0.00 0.00 0.00 59 1015.3
20181016084448 62 225 2.0 11.0 0.00 0.00 0.00 58 1015.3
20181016083947 62 45 2.0 9.0 0.00 0.00 0.00 58 1015.3
20181016083448 62 158 2.0 17.0 0.00 0.00 0.00 58 1015.6
20181016082947 63 338 2.0 17.0 0.00 0.00 0.00 55 1015.3
20181016082447 63 225 3.0 16.0 0.00 0.00 0.00 55 1015.3
20181016081949 63 45 2.0 12.0 0.00 0.00 0.00 55 1015.3
20181016081447 63 23 2.0 11.0 0.00 0.00 0.00 55 1015.0
20181016080947 62 158 2.0 9.0 0.00 0.00 0.00 55 1015.0
20181016080447 62 45 2.0 10.0 0.00 0.00 0.00 55 1015.3
20181016075947 62 23 3.0 13.0 0.00 0.00 0.00 56 1015.3
20181016075446 62 23 3.0 13.0 0.00 0.00 0.00 56 1015.3
20181016074947 62 23 2.0 13.0 0.00 0.00 0.00 56 1015.3
20181016074445 62 45 2.0 16.0 0.00 0.00 0.00 56 1015.3
20181016073947 63 0 3.0 16.0 0.00 0.00 0.00 58 1015.0
20181016073447 63 68 2.0 17.0 0.00 0.00 0.00 58 1015.0
20181016072947 63 45 4.0 17.0 0.00 0.00 0.00 58 1015.0
20181016072445 63 68 2.0 9.0 0.00 0.00 0.00 58 1015.3
20181016071947 64 23 2.0 9.0 0.00 0.00 0.00 58 1015.3
20181016071447 64 23 3.0 9.0 0.00 0.00 0.00 58 1016.1
20181016070945 64 45 2.0 10.0 0.00 0.00 0.00 58 1016.4
20181016070447 65 45 2.0 12.0 0.00 0.00 0.00 55 1015.6
20181016065945 65 45 3.0 12.0 0.00 0.00 0.00 54 1015.6
20181016065446 65 338 2.0 11.0 0.00 0.00 0.00 54 1016.1
20181016064947 65 23 1.0 5.0 0.00 0.00 0.00 54 1015.3
20181016064447 65 0 1.0 6.0 0.00 0.00 0.00 54 1016.1
20181016063945 65 45 1.0 7.0 0.00 0.00 0.00 54 1016.1
20181016063446 65 45 2.0 7.0 0.00 0.00 0.00 55 1015.3
20181016062946 65 45 2.0 6.0 0.00 0.00 0.00 55 1015.3
20181016062445 65 293 1.0 4.0 0.00 0.00 0.00 56 1015.3
20181016061946 65 315 1.0 5.0 0.00 0.00 0.00 56 1015.0
20181016061445 65 23 1.0 5.0 0.00 0.00 0.00 56 1016.1
20181016060945 65 225 1.0 6.0 0.00 0.00 0.00 56 1015.6
20181016060446 65 180 1.0 6.0 0.00 0.00 0.00 56 1015.6
20181016055945 65 23 1.0 5.0 0.00 0.00 0.00 58 1015.0
20181016055445 66 315 1.0 5.0 0.00 0.00 0.00 56 1015.3
20181016054945 66 225 1.0 4.0 0.00 0.00 0.00 55 1015.0
20181016054445 66 225 1.0 5.0 0.00 0.00 0.00 55 1015.3
20181016053945 66 203 1.0 6.0 0.00 0.00 0.00 55 1015.6
20181016053446 67 0 1.0 6.0 0.00 0.00 0.00 55 1015.3
20181016052944 67 203 1.0 5.0 0.00 0.00 0.00 54 1015.3
20181016052444 67 158 1.0 5.0 0.00 0.00 0.00 53 1015.0
20181016051945 67 293 1.0 6.0 0.00 0.00 0.00 51 1015.0
20181016051446 67 270 1.0 6.0 0.00 0.00 0.00 51 1015.0
20181016050945 68 225 1.0 4.0 0.00 0.00 0.00 51 1015.3
20181016050445 68 158 1.0 3.0 0.00 0.00 0.00 50 1014.6
20181016045945 68 68 1.0 4.0 0.00 0.00 0.00 50 1014.6
20181016045444 68 270 1.0 4.0 0.00 0.00 0.00 50 1015.6
20181016044945 68 135 1.0 3.0 0.00 0.00 0.00 50 1015.0
20181016044444 69 270 1.0 4.0 0.00 0.00 0.00 49 1015.0
20181016043945 69 225 1.0 4.0 0.00 0.00 0.00 49 1015.0
20181016043444 69 90 1.0 6.0 0.00 0.00 0.00 48 1014.6
20181016042945 69 270 1.0 6.0 0.00 0.00 0.00 48 1014.6
20181016042444 69 90 0.0 5.0 0.00 0.00 0.00 46 1014.6
20181016041944 69 0 1.0 5.0 0.00 0.00 0.00 46 1015.3
20181016041445 70 45 1.0 4.0 0.00 0.00 0.00 46 1014.3
20181016040944 70 68 1.0 5.0 0.00 0.00 0.00 45 1014.6
20181016040448 70 68 1.0 6.0 0.00 0.00 0.00 45 1014.6
20181016035944 70 293 1.0 6.0 0.00 0.00 0.00 43 1014.6
20181016035444 71 158 2.0 6.0 0.00 0.00 0.00 41 1014.6
20181016034943 71 180 1.0 4.0 0.00 0.00 0.00 35 1013.9
20181016034445 71 203 1.0 4.0 0.00 0.00 0.00 34 1013.6
20181016033944 71 248 1.0 4.0 0.00 0.00 0.00 34 1014.3
20181016033444 71 68 1.0 6.0 0.00 0.00 0.00 34 1013.9
20181016032946 71 45 1.0 7.0 0.00 0.00 0.00 34 1013.6
20181016032444 71 90 2.0 13.0 0.00 0.00 0.00 32 1014.3
20181016031945 72 45 2.0 13.0 0.00 0.00 0.00 32 1013.6
20181016031445 72 45 2.0 11.0 0.00 0.00 0.00 32 1013.6
20181016030944 72 0 3.0 11.0 0.00 0.00 0.00 32 1012.8
20181016030443 72 90 2.0 13.0 0.00 0.00 0.00 32 1012.8
20181016025944 72 68 6.0 13.0 0.00 0.00 0.00 31 1013.6
20181016025443 73 0 3.0 8.0 0.00 0.00 0.00 31 1012.8
20181016024943 73 68 1.0 7.0 0.00 0.00 0.00 34 1013.3
20181016024444 73 90 3.0 8.0 0.00 0.00 0.00 34 1013.6
20181016023944 73 68 2.0 8.0 0.00 0.00 0.00 34 1013.6
20181016023443 73 45 2.0 8.0 0.00 0.00 0.00 35 1012.8
20181016022943 73 45 2.0 8.0 0.00 0.00 0.00 34 1013.3
20181016022443 73 270 2.0 7.0 0.00 0.00 0.00 34 1013.3
20181016021943 74 45 2.0 6.0 0.00 0.00 0.00 34 1012.8
20181016021444 74 338 2.0 6.0 0.00 0.00 0.00 34 1012.8
20181016020944 74 45 1.0 7.0 0.00 0.00 0.00 34 1012.5
20181016020443 74 45 2.0 7.0 0.00 0.00 0.00 32 1012.5
20181016015943 74 293 1.0 5.0 0.00 0.00 0.00 32 1012.8
20181016015442 74 338 1.0 6.0 0.00 0.00 0.00 34 1012.2
20181016014943 74 0 2.0 6.0 0.00 0.00 0.00 32 1012.8
20181016014442 74 45 1.0 4.0 0.00 0.00 0.00 34 1012.5
20181016013943 74 0 1.0 4.0 0.00 0.00 0.00 34 1012.2
20181016013442 74 23 1.0 3.0 0.00 0.00 0.00 34 1012.2
20181016012942 74 45 1.0 4.0 0.00 0.00 0.00 34 1012.5
20181016012442 74 45 1.0 5.0 0.00 0.00 0.00 34 1012.2
20181016011942 74 338 1.0 5.0 0.00 0.00 0.00 34 1012.2
20181016011443 74 338 1.0 4.0 0.00 0.00 0.00 34 1012.8
20181016010942 74 0 1.0 4.0 0.00 0.00 0.00 34 1012.2
20181016010442 74 23 1.0 3.0 0.00 0.00 0.00 32 1012.5
20181016005942 74 0 1.0 5.0 0.00 0.00 0.00 32 1012.2
20181016005443 74 0 1.0 5.0 0.00 0.00 0.00 32 1012.2
20181016004941 74 23 1.0 5.0 0.00 0.00 0.00 32 1011.8
20181016004443 74 338 1.0 7.0 0.00 0.00 0.00 32 1012.2
20181016003943 75 315 2.0 7.0 0.00 0.00 0.00 31 1012.2
20181016003442 75 315 1.0 6.0 0.00 0.00 0.00 31 1012.2
20181016002943 75 0 1.0 7.0 0.00 0.00 0.00 31 1012.2
20181016002442 75 293 1.0 8.0 0.00 0.00 0.00 32 1011.8
20181016001942 75 293 2.0 8.0 0.00 0.00 0.00 31 1011.5
20181016001442 75 315 1.0 7.0 0.00 0.00 0.00 31 1012.2
20181016000942 75 270 2.0 8.0 0.00 0.00 0.00 31 1011.8
20181016000441 76 23 2.0 8.0 0.00 0.00 0.00 31 1012.2
20181015235943 76 45 2.0 8.0 0.00 0.00 0.00 31 1011.8
20181015235442 76 338 3.0 8.0 0.00 0.00 0.00 31 1012.5
20181015234941 76 0 1.0 7.0 0.00 0.00 0.00 31 1011.5
20181015234442 76 45 2.0 7.0 0.00 0.00 0.00 31 1011.5
20181015233941 76 338 2.0 8.0 0.00 0.00 0.00 31 1012.2
20181015233441 76 0 2.0 8.0 0.00 0.00 0.00 30 1012.2
20181015232940 76 293 2.0 7.0 0.00 0.00 0.00 31 1012.2
20181015232442 76 45 2.0 7.0 0.00 0.00 0.00 31 1011.8
20181015231940 76 315 1.0 8.0 0.00 0.00 0.00 30 1011.5
20181015231442 76 0 2.0 8.0 0.00 0.00 0.00 31 1012.2
20181015230942 76 0 2.0 11.0 0.00 0.00 0.00 31 1012.2
20181015230441 76 270 1.0 11.0 0.00 0.00 0.00 30 1011.8
20181015225941 76 338 1.0 6.0 0.00 0.00 0.00 31 1011.8
20181015225442 76 90 1.0 6.0 0.00 0.00 0.00 30 1011.8
20181015224941 76 45 1.0 8.0 0.00 0.00 0.00 31 1011.5
20181015224441 76 68 1.0 8.0 0.00 0.00 0.00 31 1011.8
20181015223941 76 23 2.0 8.0 0.00 0.00 0.00 31 1012.2
20181015223440 76 0 1.0 6.0 0.00 0.00 0.00 31 1012.2
20181015222941 76 338 1.0 6.0 0.00 0.00 0.00 32 1011.8
20181015222441 76 68 1.0 6.0 0.00 0.00 0.00 30 1011.8
20181015221940 76 338 2.0 8.0 0.00 0.00 0.00 31 1012.2
20181015221441 76 23 2.0 8.0 0.00 0.00 0.00 30 1012.5
20181015220941 76 23 1.0 7.0 0.00 0.00 0.00 30 1012.8
20181015220440 76 23 1.0 7.0 0.00 0.00 0.00 31 1012.2
20181015215939 76 338 1.0 7.0 0.00 0.00 0.00 30 1012.8
20181015215441 76 90 2.0 6.0 0.00 0.00 0.00 30 1012.5
20181015214940 76 315 3.0 7.0 0.00 0.00 0.00 31 1012.5
20181015214441 76 68 4.0 7.0 0.00 0.00 0.00 30 1012.5
20181015213941 76 23 3.0 7.0 0.00 0.00 0.00 30 1012.2
20181015213439 76 338 1.0 8.0 0.00 0.00 0.00 30 1012.5
20181015212940 76 0 2.0 8.0 0.00 0.00 0.00 30 1013.3
20181015212440 76 293 2.0 6.0 0.00 0.00 0.00 30 1012.8
20181015211939 76 23 2.0 6.0 0.00 0.00 0.00 30 1013.3
20181015211439 76 270 1.0 10.0 0.00 0.00 0.00 30 1012.8
20181015210940 75 23 2.0 10.0 0.00 0.00 0.00 30 1012.8
20181015210439 75 338 2.0 8.0 0.00 0.00 0.00 31 1012.5
20181015205941 75 293 2.0 9.0 0.00 0.00 0.00 30 1013.6
20181015205441 75 23 2.0 9.0 0.00 0.00 0.00 30 1013.3
20181015204939 75 0 2.0 9.0 0.00 0.00 0.00 30 1013.6
20181015204440 75 45 2.0 12.0 0.00 0.00 0.00 30 1012.8
20181015203939 75 45 2.0 12.0 0.00 0.00 0.00 31 1013.6
20181015203439 75 23 2.0 8.0 0.00 0.00 0.00 31 1013.6
20181015202939 75 45 2.0 9.0 0.00 0.00 0.00 30 1013.6
20181015202440 75 45 2.0 9.0 0.00 0.00 0.00 30 1013.9
20181015201938 75 23 2.0 8.0 0.00 0.00 0.00 30 1013.9
20181015201439 75 68 3.0 8.0 0.00 0.00 0.00 30 1013.6
20181015200939 74 338 2.0 8.0 0.00 0.00 0.00 32 1013.9
20181015200438 74 315 2.0 9.0 0.00 0.00 0.00 31 1014.3
20181015195939 74 45 2.0 9.0 0.00 0.00 0.00 31 1014.3
20181015195439 74 68 2.0 10.0 0.00 0.00 0.00 31 1014.3
20181015194939 74 293 2.0 10.0 0.00 0.00 0.00 31 1014.6
20181015194438 74 68 2.0 11.0 0.00 0.00 0.00 32 1014.6
20181015193939 74 338 2.0 11.0 0.00 0.00 0.00 34 1014.6
20181015193438 74 68 2.0 11.0 0.00 0.00 0.00 32 1015.3
20181015192938 74 45 3.0 11.0 0.00 0.00 0.00 34 1015.0
20181015192439 74 0 2.0 9.0 0.00 0.00 0.00 34 1014.6
20181015191938 74 23 2.0 9.0 0.00 0.00 0.00 31 1015.3
20181015191439 74 23 2.0 11.0 0.00 0.00 0.00 34 1015.3
20181015190939 74 45 3.0 11.0 0.00 0.00 0.00 31 1015.0
20181015190438 74 0 2.0 8.0 0.00 0.00 0.00 34 1015.0
20181015185938 74 23 2.0 11.0 0.00 0.00 0.00 32 1015.3
20181015185438 74 23 2.0 11.0 0.00 0.00 0.00 32 1015.3
20181015184937 73 45 2.0 9.0 0.00 0.00 0.00 32 1015.3
20181015184439 73 23 2.0 9.0 0.00 0.00 0.00 34 1016.1
20181015183940 73 248 2.0 9.0 0.00 0.00 0.00 31 1015.3
20181015182938 73 0 2.0 8.0 0.00 0.00 0.00 34 1015.6
20181015182437 73 23 2.0 9.0 0.00 0.00 0.00 31 1015.6
20181015181938 73 0 2.0 9.0 0.00 0.00 0.00 31 1016.4
20181015181436 73 0 2.0 10.0 0.00 0.00 0.00 32 1015.6
20181015180938 73 113 2.0 10.0 0.00 0.00 0.00 34 1015.6
20181015180437 73 45 3.0 9.0 0.00 0.00 0.00 32 1015.6
20181015175937 73 23 2.0 7.0 0.00 0.00 0.00 32 1016.4
20181015175438 72 23 2.0 8.0 0.00 0.00 0.00 34 1015.6
20181015174930 72 45 2.0 10.0 0.00 0.00 0.00 35 1016.4
20181015174424 72 0 3.0 11.0 0.00 0.00 0.00 35 1015.6
20181015173918 71 338 2.0 11.0 0.00 0.00 0.00 34 1016.1
20181015173417 71 23 2.0 9.0 0.00 0.00 0.00 35 1015.6
20181015172919 71 45 2.0 10.0 0.00 0.00 0.00 35 1016.4
20181015172418 71 338 2.0 11.0 0.00 0.00 0.00 35 1016.1
20181015171917 71 0 3.0 11.0 0.00 0.00 0.00 37 1016.1
20181015171418 71 23 2.0 9.0 0.00 0.00 0.00 35 1016.4
20181015170919 71 45 2.0 10.0 0.00 0.00 0.00 37 1016.4
20181015170417 70 0 2.0 10.0 0.00 0.00 0.00 37 1016.1
20181015165917 70 0 2.0 8.0 0.00 0.00 0.00 37 1016.8
20181015165417 70 0 2.0 8.0 0.00 0.00 0.00 37 1016.8
20181015164918 70 45 2.0 9.0 0.00 0.00 0.00 39 1016.4
20181015164417 69 338 2.0 10.0 0.00 0.00 0.00 37 1016.4
20181015163918 69 68 2.0 13.0 0.00 0.00 0.00 37 1016.1
20181015163409 69 45 4.0 11.0 0.00 0.00 0.00 37 1016.1
20181015162912 68 45 2.0 7.0 0.00 0.00 0.00 40 1016.8
20181015162358 68 23 2.0 8.0 0.00 0.00 0.00 40 1016.4
20181015161857 68 45 2.0 11.0 0.00 0.00 0.00 40 1016.8
20181015161359 68 23 3.0 11.0 0.00 0.00 0.00 40 1016.4
20181015160857 68 45 2.0 9.0 0.00 0.00 0.00 40 1016.8
20181015160357 67 0 2.0 9.0 0.00 0.00 0.00 43 1016.8
20181015155857 67 0 2.0 11.0 0.00 0.00 0.00 43 1016.8
20181015155358 67 45 2.0 11.0 0.00 0.00 0.00 44 1016.4
20181015154857 67 338 3.0 10.0 0.00 0.00 0.00 45 1017.1
20181015154357 67 315 2.0 11.0 0.00 0.00 0.00 45 1016.8
20181015153856 66 45 5.0 11.0 0.00 0.00 0.00 45 1016.4
20181015153356 0 23 4.0 7.0 0.00 0.00 0.00 1016.8
20181015152857 65 45 4.0 7.0 0.00 0.00 0.00 48 1017.1
20181015152356 65 315 2.0 9.0 0.00 0.00 0.00 48 1016.8
20181015151856 65 23 2.0 9.0 0.00 0.00 0.00 46 1016.8
20181015151356 65 45 2.0 8.0 0.00 0.00 0.00 46 1016.8
20181015150857 65 23 3.0 8.0 0.00 0.00 0.00 46 1016.4
20181015150356 65 338 2.0 8.0 0.00 0.00 0.00 49 1016.8
20181015145857 65 338 2.0 8.0 0.00 0.00 0.00 50 1016.8
20181015145356 64 23 2.0 8.0 0.00 0.00 0.00 50 1016.8
20181015144856 64 45 2.0 6.0 0.00 0.00 0.00 50 1016.4
20181015144356 64 23 2.0 6.0 0.00 0.00 0.00 51 1016.8
20181015143856 63 90 1.0 4.0 0.00 0.00 0.00 53 1016.1
20181015143357 63 23 1.0 4.0 0.00 0.00 0.00 53 1016.1
20181015142855 63 23 1.0 4.0 0.00 0.00 0.00 53 1016.1
20181015142358 63 90 1.0 6.0 0.00 0.00 0.00 51 1016.4
20181015141855 63 45 1.0 6.0 0.00 0.00 0.00 50 1016.8
20181015141356 63 45 1.0 7.0 0.00 0.00 0.00 50 1016.4
20181015140857 63 68 2.0 7.0 0.00 0.00 0.00 50 1016.4
20181015140355 63 315 2.0 6.0 0.00 0.00 0.00 50 1016.1
20181015135857 64 23 2.0 6.0 0.00 0.00 0.00 50 1016.8
20181015135356 64 338 2.0 6.0 0.00 0.00 0.00 51 1016.4
20181015134857 64 45 3.0 6.0 0.00 0.00 0.00 51 1016.4
20181015134355 64 68 1.0 7.0 0.00 0.00 0.00 51 1016.1
20181015133856 64 45 2.0 7.0 0.00 0.00 0.00 53 1016.1
20181015133355 64 23 1.0 6.0 0.00 0.00 0.00 53 1016.4
20181015132855 64 23 1.0 7.0 0.00 0.00 0.00 51 1016.1
20181015132355 64 23 2.0 7.0 0.00 0.00 0.00 51 1016.4
20181015131855 64 23 2.0 8.0 0.00 0.00 0.00 53 1016.1
20181015131355 64 45 2.0 8.0 0.00 0.00 0.00 53 1016.4
20181015130855 64 23 1.0 8.0 0.00 0.00 0.00 53 1016.1
20181015130356 64 0 2.0 8.0 0.00 0.00 0.00 53 1015.6
20181015125854 64 45 1.0 8.0 0.00 0.00 0.00 53 1015.3
20181015125356 64 45 2.0 9.0 0.00 0.00 0.00 53 1015.3
20181015124854 64 90 2.0 9.0 0.00 0.00 0.00 54 1015.3
20181015124354 64 45 2.0 8.0 0.00 0.00 0.00 54 1015.6
20181015123854 64 338 2.0 8.0 0.00 0.00 0.00 55 1015.3
20181015123353 64 338 2.0 8.0 0.00 0.00 0.00 54 1015.3
20181015122854 64 0 2.0 8.0 0.00 0.00 0.00 55 1015.6
20181015122353 64 293 2.0 8.0 0.00 0.00 0.00 55 1015.6
20181015121854 65 0 2.0 8.0 0.00 0.00 0.00 55 1015.3
20181015121353 65 0 2.0 6.0 0.00 0.00 0.00 56 1015.3
20181015120854 65 45 1.0 7.0 0.00 0.00 0.00 56 1015.3
20181015120353 65 0 1.0 7.0 0.00 0.00 0.00 56 1014.6
20181015115853 65 23 1.0 6.0 0.00 0.00 0.00 56 1014.6
20181015115355 65 23 1.0 5.0 0.00 0.00 0.00 58 1015.0
20181015114853 65 45 1.0 6.0 0.00 0.00 0.00 56 1015.0
20181015114353 65 338 1.0 6.0 0.00 0.00 0.00 56 1015.0
20181015113853 65 0 1.0 7.0 0.00 0.00 0.00 56 1014.6
20181015113354 65 0 1.0 8.0 0.00 0.00 0.00 58 1014.6
20181015112853 65 338 1.0 8.0 0.00 0.00 0.00 58 1015.0
20181015112354 65 338 1.0 7.0 0.00 0.00 0.00 58 1014.6
20181015111845 65 338 2.0 8.0 0.00 0.00 0.00 56 1014.3
20181015111336 65 23 2.0 8.0 0.00 0.00 0.00 58 1014.6
20181015110825 65 23 2.0 8.0 0.00 0.00 0.00 58 1014.6
20181015110326 65 338 2.0 8.0 0.00 0.00 0.00 59 1014.6
20181015105816 65 45 2.0 7.0 0.00 0.00 0.00 61 1015.0
20181015105316 65 315 1.0 5.0 0.00 0.00 0.00 61 1014.6
20181015104816 66 23 1.0 5.0 0.00 0.00 0.00 66 1014.6
20181015104315 66 45 1.0 4.0 0.00 0.00 0.00 69 1014.6
20181015103817 66 45 1.0 4.0 0.00 0.00 0.00 71 1014.6
20181015103315 66 315 1.0 4.0 0.00 0.00 0.00 74 1015.0
20181015102816 65 338 1.0 6.0 0.00 0.00 0.00 75 1014.6
20181015102306 65 315 1.0 6.0 0.00 0.00 0.00 78 1015.3
20181015101806 65 23 1.0 6.0 0.00 0.00 0.00 79 1014.6
20181015101257 65 293 0.0 0.0 0.00 0.00 0.00 81 1015.0
20181015100756 65 293 0.0 0.0 0.00 0.00 0.00 80 1014.6
20181015100258 65 293 0.0 0.0 0.00 0.00 0.00 80 1015.0
20181015095756 65 293 0.0 0.0 0.00 0.00 0.00 80 1015.0
20181015095258 66 293 0.0 0.0 0.00 0.00 0.00 80 1014.6
20181015094800 66 293 0.0 0.0 0.00 0.00 0.00 79 1015.0
20181015094253 66 293 0.0 0.0 0.00 0.00 0.00 79 1015.0
20181015093749 66 293 0.0 0.0 0.00 0.00 0.00 78 1015.0
20181015093245 66 293 0.0 0.0 0.00 0.00 0.00 79 1014.6
20181015092746 66 293 0.0 0.0 0.00 0.00 0.00 78 1014.3
20181015092239 66 293 0.0 0.0 0.00 0.00 0.00 78 1015.0
20181015091739 66 293 0.0 0.0 0.00 0.00 0.00 78 1015.0
20181015091238 67 293 0.0 0.0 0.00 0.00 0.00 78 1015.0
20181015090738 67 293 0.0 0.0 0.00 0.01 0.00 76 1014.6
20181015090238 67 293 0.0 0.0 0.00 0.01 0.00 76 1014.6
20181015085737 67 293 0.0 0.0 0.00 0.01 0.00 76 1015.0
20181015085237 67 315 0.0 0.0 0.00 0.01 0.00 76 1014.6